EW0407 Weather Reports


Display with metric or nautical units.
time (UTC)temp
F
wind
direction
speed
MPH
gust
MPH
rain 1hr
in
rain 24hr
in
rain mn
in
humidity
%
barometer
mb
20260506231052 60 74 0.0 1.0 0.00 0.00 0.00 61 1021.8
20260506230013 60 0.0 1.0 0.00 0.00 0.00 60 1021.7
20260506224828 60 91 2.0 2.0 0.00 0.00 0.00 61 1021.7
20260506223913 60 0.0 1.0 0.00 0.00 0.00 61 1021.7
20260506222832 61 108 1.0 1.0 0.00 0.00 0.00 59 1021.7
20260506221628 62 0.0 0.0 0.00 0.00 0.00 58 1022.0
20260506220712 62 25 1.0 1.0 0.00 0.00 0.00 57 1021.7
20260506215612 62 0.0 1.0 0.00 0.00 0.00 58 1021.9
20260506214428 61 0.0 1.0 0.00 0.00 0.00 59 1021.9
20260506213452 62 68 1.0 1.0 0.00 0.00 0.00 57 1022.1
20260506212412 63 0.0 1.0 0.00 0.00 0.00 54 1022.2
20260506211228 64 353 1.0 2.0 0.00 0.00 0.00 51 1022.2
20260506210252 64 2 2.0 3.0 0.00 0.00 0.00 50 1022.1
20260506205212 65 325 2.0 2.0 0.00 0.00 0.00 50 1022.3
20260506204028 65 322 2.0 3.0 0.00 0.00 0.00 50 1022.3
20260506203052 63 44 1.0 1.0 0.00 0.00 0.00 54 1022.1
20260506202012 62 85 0.0 1.0 0.00 0.00 0.00 56 1021.8
20260506200828 63 78 1.0 1.0 0.00 0.00 0.00 56 1022.2
20260506195852 63 0.0 2.0 0.00 0.00 0.00 55 1022.0
20260506194812 63 88 0.0 2.0 0.00 0.00 0.00 56 1021.9
20260506193628 63 0.0 0.0 0.00 0.00 0.00 58 1021.5
20260506192653 63 0.0 1.0 0.00 0.00 0.00 56 1021.7
20260506191612 63 0.0 1.0 0.00 0.00 0.00 57 1021.3
20260506190428 65 91 1.0 1.0 0.00 0.00 0.00 55 1021.4
20260506185452 66 0.0 1.0 0.00 0.00 0.00 51 1021.2
20260506184412 67 0.0 2.0 0.00 0.00 0.00 49 1021.0
20260506183228 67 340 3.0 5.0 0.00 0.00 0.00 49 1020.9
20260506182253 67 22 1.0 3.0 0.00 0.00 0.00 49 1020.9
20260506181212 67 3 1.0 2.0 0.00 0.00 0.00 48 1020.9
20260506180028 66 0.0 0.0 0.00 0.00 0.00 53 1020.7
20260506175112 66 0.0 1.0 0.00 0.00 0.00 53 1020.6
20260506174013 67 89 1.0 1.0 0.00 0.00 0.00 51 1020.6
20260506172829 68 110 0.0 2.0 0.00 0.00 0.00 48 1020.4
20260506171852 68 111 1.0 1.0 0.00 0.00 0.00 47 1020.1
20260506170812 69 91 1.0 2.0 0.00 0.00 0.00 47 1020.3
20260506165628 71 105 1.0 1.0 0.00 0.00 0.00 42 1020.0
20260506164652 72 145 1.0 2.0 0.00 0.00 0.00 43 1020.0
20260506163612 72 0.0 1.0 0.00 0.00 0.00 42 1019.9
20260506162430 75 143 0.0 1.0 0.00 0.00 0.00 37 1019.8
20260506161452 74 145 1.0 3.0 0.00 0.00 0.00 39 1019.6
20260506160413 74 200 1.0 2.0 0.00 0.00 0.00 37 1019.5
20260506155248 74 184 3.0 5.0 0.00 0.00 0.00 39 1019.5
20260506154314 77 156 0.0 2.0 0.00 0.00 0.00 37 1019.5
20260506153212 77 230 1.0 2.0 0.00 0.00 0.00 38 1019.4
20260506152257 76 189 1.0 5.0 0.00 0.00 0.00 39 1019.7
20260506151301 76 169 4.0 6.0 0.00 0.00 0.00 38 1019.5
20260506150212 75 153 5.0 8.0 0.00 0.00 0.00 39 1019.9
20260506145029 76 192 3.0 8.0 0.00 0.00 0.00 39 1019.5
20260506144053 78 124 5.0 8.0 0.00 0.00 0.00 38 1019.6
20260506143033 77 192 5.0 8.0 0.00 0.00 0.00 37 1019.6
20260506141827 77 186 2.0 3.0 0.00 0.00 0.00 35 1019.7
20260506140852 78 323 4.0 6.0 0.00 0.00 0.00 39 1019.8
20260506135811 79 173 1.0 7.0 0.00 0.00 0.00 37 1019.5
20260506134628 79 160 2.0 5.0 0.00 0.00 0.00 39 1019.5
20260506133651 79 249 3.0 6.0 0.00 0.00 0.00 35 1019.5
20260506132611 79 169 1.0 3.0 0.00 0.00 0.00 42 1019.5
20260506131428 80 153 4.0 7.0 0.00 0.00 0.00 42 1019.8
20260506130452 80 189 6.0 8.0 0.00 0.00 0.00 42 1019.7
20260506125411 79 153 1.0 7.0 0.00 0.00 0.00 43 1019.9
20260506124228 79 95 0.0 6.0 0.00 0.00 0.00 44 1019.8
20260506123251 79 290 3.0 7.0 0.00 0.00 0.00 44 1019.9
20260506122211 78 136 5.0 8.0 0.00 0.00 0.00 46 1020.2
20260506121027 78 213 3.0 6.0 0.00 0.00 0.00 47 1020.0
20260506120052 79 224 4.0 10.0 0.00 0.00 0.00 36 1020.1
20260506115011 80 133 4.0 6.0 0.00 0.00 0.00 44 1020.2
20260506113927 78 210 4.0 7.0 0.00 0.00 0.00 36 1020.1
20260506112851 77 250 4.0 7.0 0.00 0.00 0.00 38 1020.2
20260506111812 80 126 2.0 5.0 0.00 0.00 0.00 42 1020.1
20260506110627 79 169 1.0 6.0 0.00 0.00 0.00 41 1020.2
20260506105651 77 209 4.0 6.0 0.00 0.00 0.00 38 1020.5
20260506104611 78 285 2.0 6.0 0.00 0.00 0.00 39 1020.3
20260506103428 78 251 3.0 6.0 0.00 0.00 0.00 39 1020.3
20260506102452 79 267 3.0 8.0 0.00 0.00 0.00 38 1020.3
20260506101412 79 121 1.0 6.0 0.00 0.00 0.00 39 1020.5
20260506100227 78 222 2.0 3.0 0.00 0.00 0.00 39 1020.3
20260506095252 76 267 5.0 6.0 0.00 0.00 0.00 40 1020.4
20260506094211 76 275 4.0 5.0 0.00 0.00 0.00 41 1020.8
20260506093027 77 295 4.0 6.0 0.00 0.00 0.00 41 1020.7
20260506092051 77 170 2.0 6.0 0.00 0.00 0.00 39 1020.5
20260506091011 76 222 2.0 2.0 0.00 0.00 0.00 41 1020.8
20260506085828 76 117 0.0 2.0 0.00 0.00 0.00 41 1021.0
20260506084851 75 188 1.0 2.0 0.00 0.00 0.00 41 1020.5
20260506083832 75 134 0.0 5.0 0.00 0.00 0.00 40 1020.7
20260506082628 75 184 1.0 3.0 0.00 0.00 0.00 40 1020.7
20260506081652 73 137 1.0 3.0 0.00 0.00 0.00 41 1020.7
20260506080612 73 191 5.0 6.0 0.00 0.00 0.00 42 1020.6
20260506073412 73 202 1.0 3.0 0.00 0.00 0.00 43 1020.6
20260506072227 73 159 1.0 2.0 0.00 0.00 0.00 44 1020.3
20260506071251 71 170 1.0 3.0 0.00 0.00 0.00 47 1020.3
20260506070211 72 157 0.0 2.0 0.00 0.00 0.00 46 1020.5
20260506061827 70 278 1.0 2.0 0.00 0.00 0.00 47 1020.7
20260506060932 68 233 2.0 2.0 0.00 0.00 0.00 49 1020.5
20260506050452 64 137 0.0 1.0 0.00 0.00 0.00 60 1020.7
20260506044227 60 85 1.0 2.0 0.00 0.00 0.00 64 1020.5
20260506043251 59 94 1.0 3.0 0.00 0.00 0.00 67 1020.8
20260506042252 59 70 1.0 2.0 0.00 0.00 0.00 65 1020.5
20260506041028 57 48 2.0 2.0 0.00 0.00 0.00 69 1020.6
20260506040132 56 73 2.0 2.0 0.00 0.00 0.00 70 1020.4
20260506035011 56 92 1.0 3.0 0.00 0.00 0.00 71 1020.4
20260506033828 57 86 2.0 2.0 0.00 0.00 0.00 69 1020.4
20260506032852 56 71 1.0 2.0 0.00 0.00 0.00 70 1020.4
20260506031812 57 85 1.0 1.0 0.00 0.00 0.00 68 1020.4
20260506030627 57 90 0.0 1.0 0.00 0.00 0.00 69 1020.2
20260506025652 58 77 1.0 1.0 0.00 0.00 0.00 69 1020.2
20260506024632 58 46 1.0 2.0 0.00 0.00 0.00 68 1020.5
20260506023428 58 85 0.0 1.0 0.00 0.00 0.00 68 1020.4
20260506022452 58 70 1.0 1.0 0.00 0.00 0.00 69 1020.4
20260506021412 58 73 1.0 1.0 0.00 0.00 0.00 68 1020.3
20260506020228 59 33 2.0 2.0 0.00 0.00 0.00 66 1020.3
20260506015252 60 42 1.0 1.0 0.00 0.00 0.00 66 1020.4
20260506014212 60 0.0 0.0 0.00 0.00 0.00 66 1020.5
20260506013028 60 0.0 0.0 0.00 0.00 0.00 65 1020.6
20260506012052 60 50 1.0 1.0 0.00 0.00 0.00 65 1020.4
20260506011011 60 25 1.0 1.0 0.00 0.00 0.00 65 1020.4
20260506005828 60 0.0 0.0 0.00 0.00 0.00 66 1020.6
20260506004852 60 10 1.0 1.0 0.00 0.00 0.00 66 1020.5
20260506003812 61 251 1.0 2.0 0.00 0.00 0.00 65 1020.7
20260506002628 61 22 1.0 3.0 0.00 0.00 0.00 64 1020.6
20260506001652 60 339 2.0 3.0 0.00 0.00 0.00 65 1020.5
20260506000631 60 333 1.0 2.0 0.00 0.00 0.00 65 1020.7
20260505235427 61 60 1.0 1.0 0.00 0.00 0.00 64 1020.5
20260505234452 61 13 2.0 2.0 0.00 0.00 0.00 63 1020.7
20260505233432 61 5 2.0 3.0 0.00 0.00 0.00 63 1020.6
20260505232248 61 338 2.0 3.0 0.00 0.00 0.00 62 1020.8